Orbital Elements at Epoch 2459000.5 (2020-May-31.0) TDB
Reference: JPL 27 (heliocentric ecliptic J2000)
Element | Value | Uncertainty (1-sigma) | Units |
e | .07939000728270189 | 4.4952e-08 | |
a | 2.930573512910274 | 2.2762e-08 | au |
q | 2.697915260377834 | 1.2936e-07 | au |
i | 10.02238557842086 | 4.7135e-06 | deg |
node | 263.5738558616469 | 2.5933e-05 | deg |
peri | 55.63509528307601 | 4.1093e-05 | deg |
M | 188.5503796288484 | 3.5214e-05 | deg |
tp | 2459873.192782108734 (2022-Oct-20.69278211) | 0.00018464 | TDB |
period | 1832.429846616371 5.02 | 2.1349e-05 5.845e-08 | d yr |
n | .1964604542240726 | 2.2889e-09 | deg/d |
Q | 3.163231765442713 | 2.4569e-08 | au |
|
| | Orbit Determination Parameters
Additional Information
|